Weather History for Milwaukee Timmerman, WI

Change the Weather History Date:

Monday, July 8, 2013

  Actual Average Record
Temperature  
Mean Temperature 76 °F -  
Max Temperature 84 °F 84 °F 100 °F (1988)
Min Temperature 68 °F 64 °F 32 °F (2004)
Cooling Degree Days 11    
Growing Degree Days 26 (Base 50)    
Moisture  
Dew Point 66 °F    
Average Humidity 74    
Maximum Humidity 88    
Minimum Humidity 62    
Precipitation  
Precipitation 0.00 in - - ()
Sea Level Pressure  
Sea Level Pressure 29.96 in    
Wind  
Wind Speed 7 mph (SW)    
Max Wind Speed 16 mph    
Max Gust Speed 25 mph    
Visibility 9 miles    
Events Rain    
Averages and records for this station are not official NWS values.
T = Trace of Precipitation, MM = Missing Value Source: NWS Daily Summary

Daily Weather History Graph

Daily Weather History Graph

Search for Another Location

Airport:

Trip Planner

Search our weather history database for the weather conditions in past years. The results will help you decide how hot, cold, wet, or windy it might be!

Date:

Astronomy

Jul. 08, 2013 Rise Set
Actual Time 5:20 AM CDT 8:33 PM CDT
Civil Twilight 4:46 AM CDT 9:07 PM CDT
Nautical Twilight 4:01 AM CDT 9:52 PM CDT
Astronomical Twilight 3:06 AM CDT 10:46 PM CDT
Moon 5:52 AM CDT (7/8) 8:32 PM CDT (7/8)
Length of Visible Light 16h 21m
Length of Day
15h 12m
New Moon, 0% of the Moon is Illuminated
Jul 8
New Moon
Jul 15
First Quarter
Jul 22
Full
Jul 29
Last Quarter
Aug 6
New

Hourly Weather History & Observations

Time (CDT) Temp. Heat Index Dew Point Humidity Pressure Visibility Wind Dir Wind Speed Gust Speed Precip Events Conditions
12:15 AM 77.0 °F - 64.4 °F 65% 29.98 in 10.0 mi SSW 4.6 mph - N/A   Scattered Clouds
12:35 AM 77.0 °F - 64.4 °F 65% 29.98 in 10.0 mi SSW 6.9 mph - N/A   Scattered Clouds
12:55 AM 77.0 °F - 64.4 °F 65% 29.97 in 10.0 mi South 6.9 mph - N/A   Mostly Cloudy
1:15 AM 77.0 °F - 64.4 °F 65% 29.96 in 10.0 mi SSW 8.1 mph - N/A   Mostly Cloudy
1:35 AM 77.0 °F - 64.4 °F 65% 29.96 in 10.0 mi SSW 6.9 mph - N/A   Scattered Clouds
1:55 AM 77.0 °F - 64.4 °F 65% 29.96 in 10.0 mi SSW 6.9 mph - N/A   Clear
2:15 AM 77.0 °F - 64.4 °F 65% 29.95 in 10.0 mi SW 5.8 mph - N/A   Clear
2:35 AM 75.2 °F - 64.4 °F 69% 29.95 in 10.0 mi SSW 4.6 mph - N/A   Clear
2:55 AM 73.4 °F - 64.4 °F 73% 29.95 in 10.0 mi South 3.5 mph - N/A   Clear
3:15 AM 75.2 °F - 64.4 °F 69% 29.94 in 10.0 mi SSW 4.6 mph - N/A   Clear
3:35 AM 75.2 °F - 64.4 °F 69% 29.94 in 10.0 mi SSW 6.9 mph - N/A   Clear
3:55 AM 77.0 °F - 64.4 °F 65% 29.92 in 10.0 mi SSW 5.8 mph - N/A   Clear
4:15 AM 77.0 °F - 64.4 °F 65% 29.92 in 10.0 mi SSW 6.9 mph - N/A   Clear
4:35 AM 77.0 °F - 64.4 °F 65% 29.93 in 10.0 mi SSW 9.2 mph - N/A   Scattered Clouds
4:55 AM 77.0 °F - 64.4 °F 65% 29.92 in 10.0 mi SSW 6.9 mph - N/A   Scattered Clouds
5:15 AM 77.0 °F - 64.4 °F 65% 29.92 in 10.0 mi SSW 8.1 mph - N/A   Clear
5:55 AM 77.0 °F - 64.4 °F 65% 29.93 in 10.0 mi SW 16.1 mph 23.0 mph N/A   Mostly Cloudy
6:15 AM 77.0 °F - 64.4 °F 65% 29.94 in 10.0 mi WSW 12.7 mph 17.3 mph N/A   Mostly Cloudy
6:35 AM 73.4 °F - 64.4 °F 73% 29.95 in 10.0 mi WSW 13.8 mph 25.3 mph N/A Rain Light Rain
6:45 AM 73.4 °F - 66.2 °F 78% 29.95 in 7.0 mi WSW 13.8 mph 25.3 mph N/A Rain Rain
6:55 AM 71.6 °F - 66.2 °F 83% 29.95 in 7.0 mi SW 11.5 mph 16.1 mph N/A   Drizzle
7:45 AM 71.6 °F - 68.0 °F 88% 29.97 in 7.0 mi WSW 5.8 mph - N/A Rain Light Rain
8:45 AM 71.6 °F - 68.0 °F 88% 30.00 in 2.5 mi WSW 6.9 mph - N/A Rain Rain
9:45 AM 71.6 °F - 68.0 °F 88% 29.98 in 2.5 mi South 6.9 mph - N/A Rain Rain
10:14 AM 71.6 °F - 66.2 °F 83% 29.97 in 5.0 mi South 9.2 mph - N/A Rain Light Rain
10:45 AM 71.6 °F - 68.0 °F 88% 29.96 in 10.0 mi South 11.5 mph - N/A   Scattered Clouds
11:19 AM 75.2 °F - 69.8 °F 83% 29.96 in 10.0 mi SW 13.8 mph 20.7 mph N/A   Mostly Cloudy
11:45 AM 77.0 °F - 68.0 °F 74% 29.95 in 10.0 mi SSW 11.5 mph 19.6 mph N/A   Overcast
12:45 PM 78.8 °F - 69.8 °F 74% 29.95 in 10.0 mi WSW 5.8 mph - N/A   Overcast
1:45 PM 78.8 °F - 69.8 °F 74% 29.94 in 10.0 mi West 9.2 mph - N/A   Overcast
2:45 PM 80.6 °F 83.9 °F 69.8 °F 70% 29.95 in 10.0 mi WSW 8.1 mph - N/A   Overcast
3:45 PM 82.4 °F 86.3 °F 69.8 °F 66% 29.94 in 10.0 mi West 9.2 mph - N/A   Mostly Cloudy
4:45 PM 84.2 °F 89.6 °F 71.6 °F 66% 29.94 in 10.0 mi WNW 9.2 mph - N/A   Mostly Cloudy
5:45 PM 84.2 °F 88.4 °F 69.8 °F 62% 29.93 in 10.0 mi West 5.8 mph - N/A   Mostly Cloudy
6:45 PM 82.4 °F 87.2 °F 71.6 °F 70% 29.95 in 10.0 mi North 9.2 mph - N/A   Scattered Clouds
7:45 PM 75.2 °F - 69.8 °F 83% 29.97 in 10.0 mi NE 6.9 mph - N/A   Mostly Cloudy
8:45 PM 71.6 °F - 66.2 °F 83% 29.99 in 10.0 mi NNE 9.2 mph - N/A   Scattered Clouds
9:15 PM 69.8 °F - 64.4 °F 83% 30.00 in 10.0 mi NE 3.5 mph - N/A   Clear
9:35 PM 69.8 °F - 64.4 °F 83% 30.00 in 10.0 mi NE 3.5 mph - N/A   Clear
9:55 PM 69.8 °F - 64.4 °F 83% 30.01 in 7.0 mi ENE 4.6 mph - N/A   Clear
10:15 PM 69.8 °F - 64.4 °F 83% 30.01 in 7.0 mi NE 4.6 mph - N/A   Clear
10:35 PM 69.8 °F - 64.4 °F 83% 30.01 in 7.0 mi Calm Calm - N/A   Clear
10:55 PM 69.8 °F - 64.4 °F 83% 30.01 in 7.0 mi Calm Calm - N/A   Clear
11:15 PM 69.8 °F - 64.4 °F 83% 30.01 in 7.0 mi ENE 3.5 mph - N/A   Scattered Clouds
11:35 PM 68.0 °F - 64.4 °F 88% 30.01 in 7.0 mi Calm Calm - N/A   Scattered Clouds
11:55 PM 68.0 °F - 64.4 °F 88% 30.01 in 7.0 mi Calm Calm - N/A   Mostly Cloudy